Location: Aciu?a
(46.2833°N, 22.4500°E)
Time: 05:50:37
(UTC+00:00)

Cosmos 2251 Rocket - Pass Details

Date: 25 October 2021
Orbit: 765 x 791 km, 74.0° (Epoch: 04 December)

Event Time Altitude Azimuth Distance (km) Brightness Sun altitude
Rises 15:55:38 0° 345° (NNW) 3,253 6.8 -5.7°
Reaches altitude 10° 15:58:20 10° 357° (N) 2,319 5.9 -6.2°
Maximum altitude 16:02:53 29° 57° (ENE) 1,384 4.4 -6.9°
Drops below altitude 10° 16:07:25 10° 117° (ESE) 2,301 5.5 -7.7°
Sets 16:10:04 0° 128° (SE) 3,223 6.3 -8.2°
